Location: Newark
(29.9790°N, 31.1340°E)
Time: 20:18:54
(UTC+00:00)

Transit 2A Rocket - Pass Details

Date: 21 January 2020
Orbit: 591 x 912 km, 66.7° (Epoch: 23 February)

Event Time Altitude Azimuth Distance (km) Brightness Sun altitude
Rises 12:18:56 0° 355° (N) 3,050 7.7 30.8°
Reaches altitude 10° 12:21:52 10° 14° (NNE) 2,193 7.0 30.4°
Maximum altitude 12:25:19 18° 58° (ENE) 1,759 6.5 29.9°
Drops below altitude 10° 12:28:57 10° 101° (E) 2,335 7.3 29.5°
Sets 12:32:12 0° 119° (ESE) 3,328 8.2 29.0°
